Tracking 17630 objects as of 25-May-2016
HD Live streaming from Space Station
objects crossing your sky now

COSMOS 778


10-day predictions
COSMOS 778 is classified as:


NORAD ID: 8419
Int'l Code: 1975-103A
Perigee: 973.6 km
Apogee: 1,007.2 km
Inclination: 83.0 °
Period: 104.8 minutes
Semi major axis: 7361 km
RCS: 2.3884 m2 (large)
Launch date: November 4, 1975
Source: Commonwealth of Independent States (former USSR) (CIS)
Launch site: PLESETSK MISSILE AND SPACE COMPLEX (PKMTR)
Your satellite tracking list
Your tracking list is empty





NASA's NSSDC Master Catalog

Two Line Element Set (TLE):
1  8419U 75103A   16144.97113940 +.00000017 +00000-0 +15445-5 0  9990
2  8419 082.9725 123.5145 0022810 035.3272 343.5145 13.74566328033526
Source of the keplerian elements: AFSPC

N2YO: 519